Time,TemperatureF,DewpointF,PressureIn,WindDirection,WindDirectionDegrees,WindSpeedMPH,WindSpeedGustMPH,Humidity,HourlyPrecipIn,Conditions,Clouds,dailyrainin,SoftwareType,DateUTC
2013-03-15 00:02:00,31.0,23.0,-100.00,East,95,3.0,4.0,73,0.00,,,-99.99,,2013-03-15 06:02:00,
2013-03-15 00:12:00,30.0,23.0,-100.00,East,95,4.0,6.0,74,0.00,,,-99.99,,2013-03-15 06:12:00,
2013-03-15 00:22:00,30.0,23.0,-100.00,East,95,5.0,6.0,74,0.00,,,-99.99,,2013-03-15 06:22:00,
2013-03-15 00:32:00,29.0,22.0,-100.00,East,95,3.0,7.0,74,0.00,,,-99.99,,2013-03-15 06:32:00,
2013-03-15 00:42:00,29.0,22.0,-100.00,East,80,6.0,6.0,75,0.00,,,-99.99,,2013-03-15 06:42:00,
2013-03-15 00:52:00,29.0,22.0,-100.00,East,100,4.0,5.0,76,0.00,,,-99.99,,2013-03-15 06:52:00,
2013-03-15 01:02:00,28.0,22.0,-100.00,ESE,105,4.0,6.0,77,0.00,,,-99.99,,2013-03-15 07:02:00,
2013-03-15 01:12:00,28.0,22.0,-100.00,East,100,5.0,7.0,78,0.00,,,-99.99,,2013-03-15 07:12:00,
2013-03-15 01:22:00,28.0,22.0,-100.00,East,85,5.0,6.0,78,0.00,,,-99.99,,2013-03-15 07:22:00,
2013-03-15 01:32:00,27.0,22.0,-100.00,East,95,5.0,6.0,79,0.00,,,-99.99,,2013-03-15 07:32:00,
2013-03-15 01:42:00,27.0,22.0,-100.00,East,90,4.0,6.0,80,0.00,,,-99.99,,2013-03-15 07:42:00,
2013-03-15 01:52:00,27.0,22.0,-100.00,East,80,3.0,6.0,80,0.00,,,-99.99,,2013-03-15 07:52:00,
2013-03-15 02:02:00,27.0,22.0,-100.00,East,95,3.0,6.0,81,0.00,,,-99.99,,2013-03-15 08:02:00,
2013-03-15 02:12:00,27.0,22.0,-100.00,ESE,110,6.0,7.0,82,0.00,,,-99.99,,2013-03-15 08:12:00,
2013-03-15 02:22:00,27.0,23.0,-100.00,ENE,75,6.0,7.0,82,0.00,,,-99.99,,2013-03-15 08:22:00,
2013-03-15 02:32:00,27.0,22.0,-100.00,East,90,5.0,6.0,82,0.00,,,-99.99,,2013-03-15 08:32:00,
2013-03-15 02:42:00,27.0,22.0,-100.00,ENE,75,4.0,6.0,82,0.00,,,-99.99,,2013-03-15 08:42:00,
2013-03-15 02:52:00,27.0,23.0,-100.00,East,90,4.0,6.0,83,0.00,,,-99.99,,2013-03-15 08:52:00,
2013-03-15 03:02:00,27.0,23.0,-100.00,SE,125,2.0,6.0,83,0.00,,,-99.99,,2013-03-15 09:02:00,
2013-03-15 03:12:00,27.0,23.0,-100.00,East,95,6.0,7.0,83,0.00,,,-99.99,,2013-03-15 09:12:00,
2013-03-15 03:22:00,27.0,22.0,-100.00,East,100,6.0,7.0,83,0.00,,,-99.99,,2013-03-15 09:22:00,
2013-03-15 03:33:00,26.0,22.0,-100.00,East,95,6.0,7.0,83,0.00,,,-99.99,,2013-03-15 09:33:00,
2013-03-15 03:43:00,27.0,22.0,-100.00,ESE,105,6.0,7.0,84,0.00,,,-99.99,,2013-03-15 09:43:00,
2013-03-15 03:52:00,27.0,23.0,-100.00,ESE,110,6.0,7.0,84,0.00,,,-99.99,,2013-03-15 09:52:00,
2013-03-15 04:03:00,27.0,23.0,-100.00,East,95,6.0,7.0,84,0.00,,,-99.99,,2013-03-15 10:03:00,
2013-03-15 04:12:00,27.0,23.0,-100.00,East,100,7.0,8.0,84,0.00,,,-99.99,,2013-03-15 10:12:00,
2013-03-15 04:23:00,27.0,23.0,-100.00,East,95,4.0,7.0,84,0.00,,,-99.99,,2013-03-15 10:23:00,
2013-03-15 04:33:00,27.0,23.0,-100.00,East,85,5.0,6.0,85,0.00,,,-99.99,,2013-03-15 10:33:00,
2013-03-15 04:42:00,27.0,23.0,-100.00,ESE,110,2.0,9.0,85,0.00,,,-99.99,,2013-03-15 10:42:00,
2013-03-15 04:52:00,27.0,23.0,-100.00,East,85,6.0,9.0,85,0.00,,,-99.99,,2013-03-15 10:52:00,
2013-03-15 05:03:00,26.0,22.0,-100.00,East,95,4.0,9.0,85,0.00,,,-99.99,,2013-03-15 11:03:00,
2013-03-15 05:12:00,26.0,22.0,-100.00,East,95,4.0,6.0,85,0.00,,,-99.99,,2013-03-15 11:12:00,
2013-03-15 05:22:00,26.0,22.0,-100.00,ENE,70,4.0,6.0,85,0.00,,,-99.99,,2013-03-15 11:22:00,
2013-03-15 05:32:00,25.0,22.0,-100.00,East,85,4.0,7.0,85,0.00,,,-99.99,,2013-03-15 11:32:00,
2013-03-15 05:42:00,25.0,21.0,-100.00,ESE,110,4.0,7.0,86,0.00,,,-99.99,,2013-03-15 11:42:00,
2013-03-15 05:52:00,25.0,21.0,-100.00,ESE,105,4.0,6.0,86,0.00,,,-99.99,,2013-03-15 11:52:00,
2013-03-15 06:02:00,25.0,21.0,-100.00,ESE,105,4.0,6.0,86,0.00,,,-99.99,,2013-03-15 12:02:00,
2013-03-15 06:12:00,24.0,21.0,-100.00,ESE,110,4.0,7.0,86,0.00,,,-99.99,,2013-03-15 12:12:00,
2013-03-15 06:23:00,24.0,21.0,-100.00,East,95,6.0,6.0,87,0.00,,,-99.99,,2013-03-15 12:23:00,
2013-03-15 06:32:00,24.0,21.0,-100.00,East,90,4.0,6.0,87,0.00,,,-99.99,,2013-03-15 12:32:00,
2013-03-15 06:42:00,24.0,21.0,-100.00,East,85,4.0,5.0,88,0.00,,,-99.99,,2013-03-15 12:42:00,
2013-03-15 06:52:00,24.0,21.0,-100.00,ESE,120,4.0,7.0,88,0.00,,,-99.99,,2013-03-15 12:52:00,
2013-03-15 07:02:00,24.0,21.0,-100.00,East,100,4.0,7.0,88,0.00,,,-99.99,,2013-03-15 13:02:00,
2013-03-15 07:12:00,24.0,21.0,-100.00,East,95,4.0,6.0,88,0.00,,,-99.99,,2013-03-15 13:12:00,
2013-03-15 07:22:00,23.0,21.0,-100.00,ESE,110,4.0,6.0,88,0.00,,,-99.99,,2013-03-15 13:22:00,
2013-03-15 07:32:00,23.0,20.0,-100.00,East,90,4.0,6.0,88,0.00,,,-99.99,,2013-03-15 13:32:00,
2013-03-15 07:42:00,23.0,20.0,-100.00,ESE,105,4.0,7.0,89,0.00,,,-99.99,,2013-03-15 13:42:00,
2013-03-15 07:52:00,24.0,21.0,-100.00,East,85,4.0,6.0,89,0.00,,,-99.99,,2013-03-15 13:52:00,
2013-03-15 08:02:00,24.0,21.0,-100.00,East,100,6.0,7.0,89,0.00,,,-99.99,,2013-03-15 14:02:00,
2013-03-15 08:12:00,24.0,21.0,-100.00,ESE,110,4.0,6.0,90,0.00,,,-99.99,,2013-03-15 14:12:00,
2013-03-15 08:22:00,23.0,21.0,-100.00,ESE,115,4.0,6.0,90,0.00,,,-99.99,,2013-03-15 14:22:00,
2013-03-15 08:32:00,25.0,22.0,-100.00,ENE,75,5.0,7.0,90,0.00,,,-99.99,,2013-03-15 14:32:00,
2013-03-15 08:42:00,24.0,22.0,-100.00,ESE,105,4.0,7.0,90,0.00,,,-99.99,,2013-03-15 14:42:00,
2013-03-15 08:52:00,24.0,22.0,-100.00,East,100,4.0,6.0,90,0.00,,,-99.99,,2013-03-15 14:52:00,
2013-03-15 09:02:00,26.0,24.0,-100.00,ESE,110,4.0,5.0,90,0.00,,,-99.99,,2013-03-15 15:02:00,
2013-03-15 09:13:00,28.0,26.0,-100.00,ESE,110,4.0,6.0,90,0.00,,,-99.99,,2013-03-15 15:13:00,
2013-03-15 09:22:00,29.0,26.0,-100.00,East,95,2.0,6.0,88,0.00,,,-99.99,,2013-03-15 15:22:00,
2013-03-15 09:33:00,31.0,26.0,-100.00,East,100,4.0,5.0,84,0.00,,,-99.99,,2013-03-15 15:33:00,
2013-03-15 09:42:00,32.0,27.0,-100.00,East,95,4.0,4.0,81,0.00,,,-99.99,,2013-03-15 15:42:00,
2013-03-15 09:52:00,34.0,27.0,-100.00,ENE,70,4.0,6.0,77,0.00,,,-99.99,,2013-03-15 15:52:00,
2013-03-15 10:02:00,35.0,27.0,-100.00,East,90,6.0,7.0,71,0.00,,,-99.99,,2013-03-15 16:02:00,
2013-03-15 10:12:00,37.0,27.0,-100.00,East,100,5.0,7.0,66,0.00,,,-99.99,,2013-03-15 16:12:00,
2013-03-15 10:22:00,38.0,27.0,-100.00,East,95,5.0,6.0,63,0.00,,,-99.99,,2013-03-15 16:22:00,
2013-03-15 10:32:00,40.0,27.0,-100.00,East,95,3.0,5.0,59,0.00,,,-99.99,,2013-03-15 16:32:00,
2013-03-15 10:42:00,41.0,26.0,-100.00,East,85,2.0,4.0,56,0.00,,,-99.99,,2013-03-15 16:42:00,
2013-03-15 10:52:00,42.0,26.0,-100.00,ESE,115,2.0,4.0,52,0.00,,,-99.99,,2013-03-15 16:52:00,
2013-03-15 11:02:00,43.0,25.0,-100.00,ESE,115,2.0,4.0,49,0.00,,,-99.99,,2013-03-15 17:02:00,
2013-03-15 11:12:00,47.0,27.0,-100.00,West,280,6.0,7.0,45,0.00,,,-99.99,,2013-03-15 17:12:00,
2013-03-15 11:22:00,48.0,25.0,-100.00,WNW,285,6.0,9.0,40,0.00,,,-99.99,,2013-03-15 17:22:00,
2013-03-15 11:32:00,49.0,25.0,-100.00,West,280,6.0,9.0,38,0.00,,,-99.99,,2013-03-15 17:32:00,
2013-03-15 11:42:00,50.0,25.0,-100.00,WNW,290,4.0,7.0,37,0.00,,,-99.99,,2013-03-15 17:42:00,
2013-03-15 11:52:00,49.0,24.0,-100.00,WNW,290,7.0,9.0,36,0.00,,,-99.99,,2013-03-15 17:52:00,
2013-03-15 12:02:00,49.0,24.0,-100.00,NW,305,6.0,9.0,36,0.00,,,-99.99,,2013-03-15 18:02:00,
2013-03-15 12:12:00,49.0,24.0,-100.00,WNW,300,7.0,10.0,36,0.00,,,-99.99,,2013-03-15 18:12:00,
2013-03-15 12:22:00,50.0,25.0,-100.00,WNW,285,5.0,8.0,36,0.00,,,-99.99,,2013-03-15 18:22:00,
2013-03-15 12:32:00,51.0,26.0,-100.00,WNW,300,6.0,8.0,36,0.00,,,-99.99,,2013-03-15 18:32:00,
2013-03-15 12:42:00,52.0,25.0,-100.00,WNW,290,13.0,16.0,35,0.00,,,-99.99,,2013-03-15 18:42:00,
2013-03-15 12:52:00,53.0,25.0,-100.00,WNW,285,17.0,24.0,33,0.00,,,-99.99,,2013-03-15 18:52:00,
2013-03-15 13:02:00,54.0,26.0,-100.00,WNW,285,16.0,24.0,32,0.00,,,-99.99,,2013-03-15 19:02:00,
2013-03-15 13:12:00,55.0,25.0,-100.00,WNW,285,19.0,24.0,30,0.00,,,-99.99,,2013-03-15 19:12:00,
2013-03-15 13:22:00,55.0,24.0,-100.00,WNW,295,21.0,27.0,29,0.00,,,-99.99,,2013-03-15 19:22:00,
2013-03-15 13:32:00,55.0,24.0,-100.00,WNW,295,23.0,29.0,29,0.00,,,-99.99,,2013-03-15 19:32:00,
2013-03-15 13:42:00,56.0,24.0,-100.00,WNW,295,24.0,30.0,28,0.00,,,-99.99,,2013-03-15 19:42:00,
2013-03-15 13:52:00,56.0,24.0,-100.00,WNW,290,19.0,30.0,28,0.00,,,-99.99,,2013-03-15 19:52:00,
2013-03-15 14:02:00,56.0,24.0,-100.00,WNW,295,27.0,36.0,28,0.00,,,-99.99,,2013-03-15 20:02:00,
2013-03-15 14:12:00,56.0,24.0,-100.00,WNW,295,24.0,34.0,28,0.00,,,-99.99,,2013-03-15 20:12:00,
2013-03-15 14:22:00,56.0,23.0,-100.00,WNW,295,32.0,37.0,27,0.00,,,-99.99,,2013-03-15 20:22:00,
2013-03-15 14:32:00,56.0,23.0,-100.00,WNW,285,22.0,35.0,27,0.00,,,-99.99,,2013-03-15 20:32:00,
2013-03-15 14:42:00,56.0,23.0,-100.00,WNW,300,27.0,35.0,27,0.00,,,-99.99,,2013-03-15 20:42:00,
2013-03-15 14:52:00,56.0,23.0,-100.00,WNW,295,21.0,34.0,27,0.00,,,-99.99,,2013-03-15 20:52:00,
2013-03-15 15:02:00,56.0,23.0,-100.00,WNW,295,25.0,39.0,27,0.00,,,-99.99,,2013-03-15 21:02:00,
2013-03-15 15:12:00,56.0,23.0,-100.00,WNW,290,24.0,34.0,27,0.00,,,-99.99,,2013-03-15 21:12:00,
2013-03-15 15:22:00,56.0,23.0,-100.00,WNW,290,23.0,34.0,26,0.00,,,-99.99,,2013-03-15 21:22:00,
2013-03-15 15:33:00,56.0,22.0,-100.00,WNW,285,23.0,35.0,26,0.00,,,-99.99,,2013-03-15 21:33:00,
2013-03-15 15:43:00,56.0,23.0,-100.00,WNW,300,22.0,34.0,26,0.00,,,-99.99,,2013-03-15 21:43:00,
2013-03-15 15:52:00,56.0,23.0,-100.00,WNW,295,23.0,34.0,26,0.00,,,-99.99,,2013-03-15 21:52:00,
2013-03-15 16:03:00,56.0,22.0,-100.00,WNW,285,26.0,35.0,26,0.00,,,-99.99,,2013-03-15 22:03:00,
2013-03-15 16:13:00,56.0,22.0,-100.00,WNW,290,21.0,28.0,26,0.00,,,-99.99,,2013-03-15 22:13:00,
2013-03-15 16:22:00,56.0,22.0,-100.00,WNW,290,22.0,28.0,26,0.00,,,-99.99,,2013-03-15 22:22:00,
2013-03-15 16:32:00,56.0,22.0,-100.00,WNW,285,24.0,30.0,26,0.00,,,-99.99,,2013-03-15 22:32:00,
2013-03-15 16:42:00,56.0,22.0,-100.00,WNW,290,21.0,32.0,26,0.00,,,-99.99,,2013-03-15 22:42:00,
2013-03-15 16:52:00,56.0,22.0,-100.00,WNW,285,21.0,32.0,26,0.00,,,-99.99,,2013-03-15 22:52:00,
2013-03-15 17:02:00,56.0,22.0,-100.00,WNW,285,24.0,32.0,26,0.00,,,-99.99,,2013-03-15 23:02:00,
2013-03-15 17:12:00,56.0,22.0,-100.00,WNW,290,22.0,34.0,26,0.00,,,-99.99,,2013-03-15 23:12:00,
2013-03-15 17:22:00,55.0,21.0,-100.00,WNW,290,22.0,29.0,26,0.00,,,-99.99,,2013-03-15 23:22:00,
2013-03-15 17:32:00,55.0,21.0,-100.00,WNW,290,21.0,29.0,26,0.00,,,-99.99,,2013-03-15 23:32:00,
2013-03-15 17:42:00,55.0,22.0,-100.00,WNW,290,18.0,26.0,26,0.00,,,-99.99,,2013-03-15 23:42:00,
2013-03-15 17:52:00,55.0,21.0,-100.00,West,280,13.0,25.0,26,0.00,,,-99.99,,2013-03-15 23:52:00,
2013-03-15 18:02:00,54.0,21.0,-100.00,WSW,255,10.0,27.0,27,0.00,,,-99.99,,2013-03-16 00:02:00,
2013-03-15 18:12:00,54.0,21.0,-100.00,West,280,10.0,17.0,27,0.00,,,-99.99,,2013-03-16 00:12:00,
2013-03-15 18:22:00,53.0,21.0,-100.00,West,275,12.0,17.0,28,0.00,,,-99.99,,2013-03-16 00:22:00,
2013-03-15 18:32:00,53.0,21.0,-100.00,West,270,7.0,12.0,28,0.00,,,-99.99,,2013-03-16 00:32:00,
2013-03-15 18:42:00,52.0,21.0,-100.00,SSE,165,3.0,9.0,29,0.00,,,-99.99,,2013-03-16 00:42:00,
2013-03-15 18:52:00,50.0,20.0,-100.00,South,170,1.0,5.0,29,0.00,,,-99.99,,2013-03-16 00:52:00,
2013-03-15 19:02:00,49.0,20.0,-100.00,SE,140,2.0,4.0,31,0.00,,,-99.99,,2013-03-16 01:02:00,
2013-03-15 19:12:00,47.0,20.0,-100.00,South,180,2.0,3.0,33,0.00,,,-99.99,,2013-03-16 01:12:00,
2013-03-15 19:21:00,46.0,20.0,-100.00,SSW,195,2.0,4.0,35,0.00,,,-99.99,,2013-03-16 01:21:00,
2013-03-15 19:32:00,44.0,20.0,-100.00,SW,215,2.0,4.0,38,0.00,,,-99.99,,2013-03-16 01:32:00,
2013-03-15 19:42:00,43.0,22.0,-100.00,SW,235,0.0,4.0,41,0.00,,,-99.99,,2013-03-16 01:42:00,
2013-03-15 19:52:00,42.0,22.0,-100.00,NW,315,0.0,2.0,44,0.00,,,-99.99,,2013-03-16 01:52:00,
2013-03-15 20:02:00,41.0,23.0,-100.00,WNW,285,0.0,1.0,47,0.00,,,-99.99,,2013-03-16 02:02:00,
2013-03-15 20:12:00,41.0,24.0,-100.00,WNW,290,1.0,2.0,49,0.00,,,-99.99,,2013-03-16 02:12:00,
2013-03-15 20:23:00,41.0,25.0,-100.00,NW,305,0.0,2.0,52,0.00,,,-99.99,,2013-03-16 02:23:00,
2013-03-15 20:32:00,41.0,26.0,-100.00,North,350,1.0,3.0,53,0.00,,,-99.99,,2013-03-16 02:32:00,
2013-03-15 20:42:00,41.0,26.0,-100.00,NNE,25,1.0,4.0,54,0.00,,,-99.99,,2013-03-16 02:42:00,
2013-03-15 20:52:00,41.0,26.0,-100.00,WNW,300,0.0,2.0,56,0.00,,,-99.99,,2013-03-16 02:52:00,
2013-03-15 21:02:00,40.0,27.0,-100.00,NW,325,0.0,2.0,57,0.00,,,-99.99,,2013-03-16 03:02:00,
2013-03-15 21:12:00,40.0,26.0,-100.00,WSW,250,1.0,3.0,58,0.00,,,-99.99,,2013-03-16 03:12:00,
2013-03-15 21:22:00,39.0,26.0,-100.00,ESE,110,2.0,4.0,59,0.00,,,-99.99,,2013-03-16 03:22:00,
2013-03-15 21:32:00,38.0,26.0,-100.00,SE,125,1.0,3.0,60,0.00,,,-99.99,,2013-03-16 03:32:00,
2013-03-15 21:43:00,38.0,26.0,-100.00,East,100,2.0,4.0,62,0.00,,,-99.99,,2013-03-16 03:43:00,
2013-03-15 21:52:00,38.0,27.0,-100.00,ESE,115,3.0,4.0,64,0.00,,,-99.99,,2013-03-16 03:52:00,
2013-03-15 22:02:00,37.0,27.0,-100.00,ESE,120,2.0,4.0,64,0.00,,,-99.99,,2013-03-16 04:02:00,
2013-03-15 22:12:00,36.0,26.0,-100.00,ESE,120,1.0,2.0,66,0.00,,,-99.99,,2013-03-16 04:12:00,
2013-03-15 22:23:00,36.0,26.0,-100.00,ESE,115,2.0,4.0,68,0.00,,,-99.99,,2013-03-16 04:23:00,
2013-03-15 22:32:00,36.0,27.0,-100.00,ESE,110,3.0,6.0,69,0.00,,,-99.99,,2013-03-16 04:32:00,
2013-03-15 22:43:00,36.0,27.0,-100.00,SE,125,2.0,7.0,70,0.00,,,-99.99,,2013-03-16 04:43:00,
2013-03-15 22:52:00,36.0,28.0,-100.00,East,95,4.0,5.0,71,0.00,,,-99.99,,2013-03-16 04:52:00,
2013-03-15 23:02:00,36.0,28.0,-100.00,ESE,105,3.0,6.0,71,0.00,,,-99.99,,2013-03-16 05:02:00,
2013-03-15 23:12:00,36.0,28.0,-100.00,ESE,105,3.0,4.0,72,0.00,,,-99.99,,2013-03-16 05:12:00,
2013-03-15 23:21:00,35.0,28.0,-100.00,ESE,110,3.0,4.0,72,0.00,,,-99.99,,2013-03-16 05:21:00,
2013-03-15 23:32:00,35.0,28.0,-100.00,ESE,105,2.0,4.0,74,0.00,,,-99.99,,2013-03-16 05:32:00,
2013-03-15 23:42:00,35.0,28.0,-100.00,ESE,120,5.0,6.0,74,0.00,,,-99.99,,2013-03-16 05:42:00,
2013-03-15 23:52:00,34.0,28.0,-100.00,ESE,110,6.0,6.0,76,0.00,,,-99.99,,2013-03-16 05:52:00,